Torna al catalogo

FENGYUN 1C DEB

AttivoSSO
NORAD 29971·DEBRIS·🇨🇳 China

Lanciato May 10, 1999 da Taiyuan Satellite Launch Center

Loading…

Prossimi Passaggi (prossime 24 ore)

TLE

AggiornatoSource: Space-Track

Epoca: Sep 13, 2026, 15:24 UTC

1 29971U 99025KV  26256.64178399  .00000971  00000-0  48472-3 0  9996
2 29971  98.6529 295.1478 0023630  97.3615  23.6471 14.18957289 12358

Traccia FENGYUN 1C DEB in tempo reale con AllMySat

Download on the App Store